Starlink 3509

operational
NORAD ID: 51737 Int'l Des: 2022-016 Owner: SPXS Country: US Constellation: starlink
LEOCIRCULAR

关于 Starlink 3509

正在加载描述...

实时位置

正在加载3D地球...

即将过境

高度历史

Altitude vs Time

uPlot chart will show altitude changes over time

两行轨道根数

1 51737U 22016Z 25302.96414630 .00002233 00000-0 15830-3 0 9999
2 51737 53.2155 185.9712 0001353 89.6653 270.4494 15.08842842203825
Epoch: Oct 29, 2025 • Age: 28 hours

当前状态

高度 539.7 km
速度 7.60 km/s
星下点 20.10°N, 97.39°W
发射日期 Feb 21, 2022
运行时间 3.6 years
类型 internet

技术详情

分类 Payload
质量 297.00 kg
干质量 275.00 kg
总质量 297.00 kg
长度 0.20 m
直径 2.80 m
跨度 9.00 m
形状 Box + pan
制造商 SPXS
平台类型 Starlink
阶段状态 In Orbit
所有者/国家 SPXS/US

大型星座

Loading constellations...